| time (UTC) | temp C | wind direction | speed KPH | gust KPH | rain 1hr cm | rain 24hr cm | rain mn cm | humidity % | barometer mb |
| 20260906201003 | 28 | 108 | 3.2 | 6.4 | 0.00 | 0.00 | 0.00 | 71 | 1013.3 |
| 20260906200503 | 28 | 101 | 3.2 | 6.4 | 0.00 | 0.00 | 0.00 | 67 | 1013.3 |
| 20260906200003 | 28 | 108 | 1.6 | 6.4 | 0.00 | 0.00 | 0.00 | 69 | 1013.4 |
| 20260906195716 | 28 | 112 | 1.6 | 6.4 | 0.00 | 0.00 | 0.00 | 68 | 1013.3 |
| 20260906195003 | 28 | 106 | 1.6 | 6.4 | 0.00 | 0.00 | 0.00 | 70 | 1013.4 |
| 20260906194503 | 28 | 121 | 1.6 | 6.4 | 0.00 | 0.00 | 0.00 | 70 | 1013.4 |
| 20260906194003 | 28 | 112 | 1.6 | 6.4 | 0.00 | 0.05 | 0.00 | 71 | 1013.2 |
| 20260906193716 | 28 | 105 | 1.6 | 6.4 | 0.00 | 0.05 | 0.00 | 71 | 1013.3 |
| 20260906193003 | 28 | 112 | 1.6 | 9.7 | 0.00 | 0.08 | 0.00 | 73 | 1013.4 |
| 20260906192503 | 28 | 105 | 1.6 | 9.7 | 0.00 | 0.10 | 0.00 | 73 | 1013.5 |
| 20260906192003 | 28 | 105 | 1.6 | 8.0 | 0.00 | 0.10 | 0.00 | 71 | 1013.6 |
| 20260906191503 | 28 | 101 | 1.6 | 6.4 | 0.00 | 0.10 | 0.00 | 73 | 1013.7 |
| 20260906191003 | 28 | 103 | 1.6 | 6.4 | 0.00 | 0.10 | 0.00 | 73 | 1013.9 |
| 20260906190504 | 28 | 89 | 1.6 | 4.8 | 0.00 | 0.10 | 0.00 | 73 | 1014.0 |
| 20260906190003 | 28 | 76 | 1.6 | 4.8 | 0.00 | 0.10 | 0.00 | 73 | 1014.0 |
| 20260906185503 | 28 | 89 | 1.6 | 4.8 | 0.00 | 0.10 | 0.00 | 72 | 1014.0 |
| 20260906185003 | 28 | 124 | 0.0 | 6.4 | 0.00 | 0.10 | 0.00 | 72 | 1014.0 |
| 20260906184503 | 28 | 160 | 0.0 | 6.4 | 0.00 | 0.10 | 0.00 | 73 | 1013.9 |
| 20260906184003 | 27 | 158 | 0.0 | 4.8 | 0.00 | 0.10 | 0.00 | 75 | 1014.0 |
| 20260906183503 | 27 | 92 | 0.0 | 4.8 | 0.00 | 0.10 | 0.00 | 75 | 1014.1 |
| 20260906183217 | 27 | 81 | 0.0 | 4.8 | 0.00 | 0.10 | 0.00 | 73 | 1014.1 |
| 20260906182503 | 27 | 108 | 0.0 | 3.2 | 0.00 | 0.10 | 0.00 | 73 | 1014.2 |
| 20260906182003 | 27 | 122 | 0.0 | 6.4 | 0.00 | 0.10 | 0.00 | 75 | 1014.3 |
| 20260906181503 | 27 | 122 | 0.0 | 6.4 | 0.00 | 0.10 | 0.00 | 73 | 1014.4 |
| 20260906181003 | 27 | 0 | 0.0 | 0.0 | 0.00 | 0.10 | 0.00 | 75 | 1014.4 |
| 20260906180718 | 27 | 0 | 0.0 | 0.0 | 0.00 | 0.10 | 0.00 | 74 | 1014.4 |
| 20260906180219 | 27 | 0 | 0.0 | 0.0 | 0.00 | 0.10 | 0.00 | 74 | 1014.4 |
| 20260906175503 | 27 | 173 | 0.0 | 3.2 | 0.00 | 0.10 | 0.00 | 75 | 1014.5 |
| 20260906175003 | 27 | 141 | 0.0 | 3.2 | 0.00 | 0.10 | 0.00 | 75 | 1014.6 |
| 20260906174503 | 27 | 133 | 0.0 | 4.8 | 0.00 | 0.10 | 0.00 | 76 | 1014.7 |
| 20260906174003 | 27 | 127 | 0.0 | 4.8 | 0.00 | 0.10 | 0.00 | 74 | 1014.8 |
| 20260906173715 | 27 | 73 | 0.0 | 3.2 | 0.00 | 0.10 | 0.00 | 76 | 1014.8 |
| 20260906173003 | 27 | 91 | 1.6 | 6.4 | 0.00 | 0.10 | 0.00 | 76 | 1015.0 |
| 20260906172503 | 27 | 105 | 0.0 | 4.8 | 0.00 | 0.10 | 0.00 | 76 | 1015.1 |
| 20260906172218 | 26 | 102 | 0.0 | 4.8 | 0.00 | 0.10 | 0.00 | 76 | 1015.2 |
| 20260906171503 | 26 | 183 | 0.0 | 1.6 | 0.00 | 0.10 | 0.00 | 79 | 1015.4 |
| 20260906171003 | 26 | 0 | 0.0 | 0.0 | 0.00 | 0.10 | 0.00 | 77 | 1015.4 |
| 20260906170717 | 26 | 0 | 0.0 | 0.0 | 0.00 | 0.10 | 0.00 | 78 | 1015.4 |
| 20260906170003 | 26 | 0 | 0.0 | 0.0 | 0.00 | 0.10 | 0.00 | 78 | 1015.7 |
| 20260906165503 | 25 | 0 | 0.0 | 0.0 | 0.00 | 0.10 | 0.00 | 80 | 1015.7 |
| 20260906165003 | 25 | 0 | 0.0 | 0.0 | 0.00 | 0.10 | 0.00 | 80 | 1015.7 |
| 20260906164503 | 25 | 0 | 0.0 | 0.0 | 0.00 | 0.10 | 0.00 | 81 | 1015.7 |
| 20260906164003 | 25 | 92 | 0.0 | 1.6 | 0.00 | 0.10 | 0.00 | 81 | 1015.8 |
| 20260906163719 | 25 | 92 | 0.0 | 1.6 | 0.00 | 0.10 | 0.00 | 80 | 1015.9 |
| 20260906163003 | 25 | 0 | 0.0 | 0.0 | 0.00 | 0.10 | 0.00 | 80 | 1015.9 |
| 20260906162503 | 25 | 0 | 0.0 | 0.0 | 0.00 | 0.10 | 0.00 | 82 | 1015.9 |
| 20260906162003 | 25 | 0 | 0.0 | 0.0 | 0.00 | 0.10 | 0.00 | 82 | 1015.9 |
| 20260906161503 | 25 | 60 | 0.0 | 3.2 | 0.00 | 0.10 | 0.00 | 82 | 1015.9 |
| 20260906161216 | 24 | 60 | 0.0 | 3.2 | 0.00 | 0.10 | 0.00 | 83 | 1015.9 |
| 20260906160503 | 24 | 0 | 0.0 | 0.0 | 0.00 | 0.10 | 0.00 | 84 | 1015.9 |
| 20260906160003 | 23 | 0 | 0.0 | 0.0 | 0.00 | 0.10 | 0.00 | 85 | 1015.9 |
| 20260906155503 | 23 | 0 | 0.0 | 0.0 | 0.00 | 0.10 | 0.00 | 85 | 1015.9 |
| 20260906155003 | 23 | 0 | 0.0 | 0.0 | 0.00 | 0.10 | 0.00 | 84 | 1016.0 |
| 20260906154503 | 23 | 0 | 0.0 | 0.0 | 0.00 | 0.10 | 0.00 | 85 | 1016.0 |
| 20260906154003 | 23 | 0 | 0.0 | 0.0 | 0.00 | 0.10 | 0.00 | 86 | 1015.9 |
| 20260906153719 | 23 | 0 | 0.0 | 0.0 | 0.00 | 0.10 | 0.00 | 86 | 1016.0 |
| 20260906153003 | 22 | 96 | 0.0 | 4.8 | 0.00 | 0.10 | 0.00 | 88 | 1015.9 |
| 20260906152503 | 22 | 92 | 0.0 | 4.8 | 0.00 | 0.10 | 0.00 | 90 | 1016.0 |
| 20260906152218 | 22 | 93 | 0.0 | 4.8 | 0.00 | 0.10 | 0.00 | 91 | 1015.9 |
| 20260906151504 | 21 | 0 | 0.0 | 0.0 | 0.00 | 0.10 | 0.00 | 94 | 1016.0 |
| 20260906151003 | 21 | 0 | 0.0 | 0.0 | 0.00 | 0.10 | 0.00 | 94 | 1016.0 |
| 20260906150503 | 21 | 360 | 0.0 | 3.2 | 0.00 | 0.10 | 0.00 | 94 | 1015.9 |
| 20260906150003 | 21 | 360 | 0.0 | 3.2 | 0.00 | 0.10 | 0.00 | 94 | 1015.9 |
| 20260906145503 | 21 | 360 | 0.0 | 4.8 | 0.00 | 0.10 | 0.00 | 95 | 1015.9 |
| 20260906145215 | 21 | 360 | 0.0 | 4.8 | 0.00 | 0.10 | 0.00 | 95 | 1015.9 |
| 20260906144503 | 20 | 0 | 0.0 | 0.0 | 0.00 | 0.10 | 0.00 | 95 | 1016.0 |
| 20260906144003 | 20 | 0 | 0.0 | 0.0 | 0.00 | 0.10 | 0.00 | 96 | 1015.9 |
| 20260906143503 | 20 | 0 | 0.0 | 0.0 | 0.00 | 0.10 | 0.00 | 95 | 1016.0 |
| 20260906143003 | 20 | 0 | 0.0 | 0.0 | 0.00 | 0.10 | 0.00 | 96 | 1016.0 |
| 20260906142503 | 20 | 0 | 0.0 | 0.0 | 0.00 | 0.10 | 0.00 | 96 | 1016.1 |
| 20260906142003 | 20 | 0 | 0.0 | 0.0 | 0.00 | 0.10 | 0.00 | 96 | 1016.2 |
| 20260906141503 | 20 | 0 | 0.0 | 0.0 | 0.00 | 0.10 | 0.00 | 96 | 1016.2 |
| 20260906141003 | 20 | 0 | 0.0 | 0.0 | 0.00 | 0.10 | 0.00 | 96 | 1016.0 |
| 20260906140503 | 20 | 0 | 0.0 | 0.0 | 0.00 | 0.10 | 0.00 | 96 | 1016.1 |
| 20260906140003 | 20 | 0 | 0.0 | 0.0 | 0.00 | 0.10 | 0.00 | 96 | 1016.1 |
| 20260906135718 | 19 | 0 | 0.0 | 0.0 | 0.00 | 0.10 | 0.00 | 96 | 1016.1 |
| 20260906135003 | 19 | 0 | 0.0 | 0.0 | 0.00 | 0.10 | 0.00 | 96 | 1016.1 |
| 20260906134716 | 19 | 360 | 0.0 | 3.2 | 0.00 | 0.10 | 0.00 | 96 | 1016.1 |
| 20260906134003 | 19 | 360 | 0.0 | 3.2 | 0.00 | 0.10 | 0.00 | 96 | 1016.0 |
| 20260906133718 | 19 | 0 | 0.0 | 0.0 | 0.00 | 0.10 | 0.00 | 96 | 1016.0 |
| 20260906133003 | 19 | 0 | 0.0 | 0.0 | 0.00 | 0.10 | 0.00 | 96 | 1016.1 |
| 20260906132503 | 19 | 0 | 0.0 | 0.0 | 0.00 | 0.10 | 0.00 | 96 | 1016.0 |
| 20260906132217 | 18 | 0 | 0.0 | 0.0 | 0.00 | 0.10 | 0.00 | 96 | 1016.0 |
| 20260906131503 | 18 | 0 | 0.0 | 0.0 | 0.00 | 0.10 | 0.00 | 96 | 1016.2 |
| 20260906131003 | 18 | 0 | 0.0 | 0.0 | 0.00 | 0.10 | 0.00 | 96 | 1016.2 |
| 20260906130503 | 18 | 0 | 0.0 | 0.0 | 0.00 | 0.10 | 0.00 | 96 | 1016.1 |
| 20260906130003 | 18 | 0 | 0.0 | 0.0 | 0.00 | 0.10 | 0.00 | 96 | 1015.9 |
| 20260906125503 | 18 | 0 | 0.0 | 0.0 | 0.00 | 0.10 | 0.00 | 96 | 1015.9 |
| 20260906125003 | 18 | 0 | 0.0 | 0.0 | 0.00 | 0.10 | 0.00 | 96 | 1015.9 |
| 20260906124503 | 18 | 0 | 0.0 | 0.0 | 0.00 | 0.10 | 0.00 | 96 | 1015.8 |
| 20260906124217 | 18 | 0 | 0.0 | 0.0 | 0.00 | 0.10 | 0.00 | 96 | 1015.8 |
| 20260906123718 | 18 | 0 | 0.0 | 0.0 | 0.00 | 0.10 | 0.00 | 96 | 1015.7 |
| 20260906123003 | 18 | 0 | 0.0 | 0.0 | 0.00 | 0.10 | 0.00 | 96 | 1015.7 |
| 20260906122503 | 18 | 0 | 0.0 | 0.0 | 0.00 | 0.10 | 0.00 | 96 | 1015.6 |
| 20260906122217 | 18 | 0 | 0.0 | 0.0 | 0.00 | 0.10 | 0.00 | 96 | 1015.6 |
| 20260906121503 | 18 | 0 | 0.0 | 0.0 | 0.00 | 0.10 | 0.00 | 96 | 1015.6 |
| 20260906121003 | 17 | 0 | 0.0 | 0.0 | 0.00 | 0.10 | 0.00 | 95 | 1015.7 |
| 20260906120503 | 17 | 0 | 0.0 | 0.0 | 0.00 | 0.10 | 0.00 | 95 | 1015.7 |
| 20260906120003 | 17 | 0 | 0.0 | 0.0 | 0.00 | 0.10 | 0.00 | 95 | 1015.8 |
| 20260906115717 | 17 | 0 | 0.0 | 0.0 | 0.00 | 0.10 | 0.00 | 95 | 1015.8 |
| 20260906115003 | 17 | 0 | 0.0 | 0.0 | 0.00 | 0.10 | 0.00 | 95 | 1015.7 |
| 20260906114503 | 17 | 0 | 0.0 | 0.0 | 0.00 | 0.10 | 0.00 | 95 | 1015.6 |
| 20260906114003 | 17 | 0 | 0.0 | 0.0 | 0.00 | 0.10 | 0.00 | 95 | 1015.7 |
| 20260906113717 | 17 | 0 | 0.0 | 0.0 | 0.00 | 0.10 | 0.00 | 95 | 1015.8 |
| 20260906113003 | 17 | 0 | 0.0 | 0.0 | 0.00 | 0.10 | 0.00 | 95 | 1015.8 |
| 20260906112503 | 17 | 0 | 0.0 | 0.0 | 0.00 | 0.10 | 0.00 | 95 | 1015.8 |
| 20260906112003 | 17 | 0 | 0.0 | 0.0 | 0.00 | 0.10 | 0.00 | 95 | 1015.8 |
| 20260906111503 | 17 | 0 | 0.0 | 0.0 | 0.00 | 0.10 | 0.00 | 95 | 1015.7 |
| 20260906111218 | 17 | 0 | 0.0 | 0.0 | 0.00 | 0.10 | 0.00 | 95 | 1015.7 |
| 20260906110503 | 18 | 0 | 0.0 | 0.0 | 0.00 | 0.10 | 0.00 | 95 | 1015.7 |
| 20260906110003 | 18 | 0 | 0.0 | 0.0 | 0.00 | 0.10 | 0.00 | 95 | 1015.7 |
| 20260906105503 | 18 | 0 | 0.0 | 0.0 | 0.00 | 0.10 | 0.00 | 95 | 1015.8 |
| 20260906105003 | 18 | 0 | 0.0 | 0.0 | 0.00 | 0.10 | 0.00 | 95 | 1015.7 |
| 20260906104503 | 18 | 0 | 0.0 | 0.0 | 0.00 | 0.10 | 0.00 | 95 | 1015.6 |
| 20260906104003 | 18 | 0 | 0.0 | 0.0 | 0.00 | 0.10 | 0.00 | 95 | 1015.5 |
| 20260906103503 | 18 | 0 | 0.0 | 0.0 | 0.00 | 0.10 | 0.00 | 95 | 1015.7 |
| 20260906103003 | 18 | 0 | 0.0 | 0.0 | 0.00 | 0.10 | 0.00 | 95 | 1015.7 |
| 20260906102503 | 18 | 0 | 0.0 | 0.0 | 0.00 | 0.10 | 0.00 | 95 | 1015.5 |
| 20260906102003 | 18 | 0 | 0.0 | 0.0 | 0.00 | 0.10 | 0.00 | 95 | 1015.4 |
| 20260906101503 | 18 | 0 | 0.0 | 0.0 | 0.00 | 0.10 | 0.00 | 95 | 1015.4 |
| 20260906101218 | 18 | 0 | 0.0 | 0.0 | 0.00 | 0.10 | 0.00 | 95 | 1015.4 |
| 20260906100719 | 18 | 0 | 0.0 | 0.0 | 0.00 | 0.10 | 0.00 | 95 | 1015.2 |
| 20260906100003 | 18 | 0 | 0.0 | 0.0 | 0.00 | 0.10 | 0.00 | 95 | 1015.1 |
| 20260906095503 | 18 | 0 | 0.0 | 0.0 | 0.00 | 0.10 | 0.00 | 95 | 1015.2 |
| 20260906095003 | 18 | 0 | 0.0 | 0.0 | 0.00 | 0.10 | 0.00 | 95 | 1015.1 |
| 20260906094503 | 18 | 0 | 0.0 | 0.0 | 0.00 | 0.10 | 0.00 | 95 | 1015.1 |
| 20260906094003 | 18 | 0 | 0.0 | 0.0 | 0.00 | 0.10 | 0.00 | 95 | 1015.2 |
| 20260906093503 | 18 | 0 | 0.0 | 0.0 | 0.00 | 0.10 | 0.00 | 95 | 1014.8 |
| 20260906093003 | 18 | 0 | 0.0 | 0.0 | 0.00 | 0.10 | 0.00 | 95 | 1014.5 |
| 20260906092718 | 18 | 0 | 0.0 | 0.0 | 0.00 | 0.10 | 0.00 | 95 | 1014.6 |
| 20260906092219 | 18 | 0 | 0.0 | 0.0 | 0.00 | 0.10 | 0.00 | 95 | 1014.9 |
| 20260906091503 | 18 | 0 | 0.0 | 0.0 | 0.00 | 0.10 | 0.00 | 95 | 1015.0 |
| 20260906091003 | 18 | 0 | 0.0 | 0.0 | 0.00 | 0.10 | 0.00 | 95 | 1014.9 |
| 20260906090718 | 18 | 0 | 0.0 | 0.0 | 0.00 | 0.10 | 0.00 | 95 | 1014.9 |
| 20260906090219 | 18 | 0 | 0.0 | 0.0 | 0.00 | 0.10 | 0.00 | 95 | 1014.9 |
| 20260906085503 | 18 | 360 | 0.0 | 1.6 | 0.00 | 0.10 | 0.00 | 95 | 1015.0 |
| 20260906085217 | 18 | 360 | 1.6 | 9.7 | 0.00 | 0.10 | 0.00 | 95 | 1015.0 |
| 20260906084503 | 18 | 360 | 1.6 | 9.7 | 0.00 | 0.10 | 0.00 | 96 | 1015.1 |
| 20260906084003 | 18 | 360 | 0.0 | 4.8 | 0.00 | 0.10 | 0.00 | 95 | 1015.1 |
| 20260906083503 | 18 | 360 | 0.0 | 4.8 | 0.00 | 0.10 | 0.00 | 95 | 1014.6 |
| 20260906083003 | 18 | 360 | 0.0 | 4.8 | 0.00 | 0.10 | 0.00 | 95 | 1014.3 |
| 20260906082503 | 18 | 0 | 0.0 | 0.0 | 0.00 | 0.10 | 0.00 | 95 | 1014.5 |
| 20260906082003 | 18 | 360 | 0.0 | 1.6 | 0.00 | 0.10 | 0.00 | 95 | 1014.5 |
| 20260906081503 | 18 | 360 | 0.0 | 1.6 | 0.00 | 0.10 | 0.00 | 95 | 1014.7 |
| 20260906081003 | 18 | 360 | 0.0 | 1.6 | 0.00 | 0.10 | 0.00 | 95 | 1014.8 |
| 20260906080718 | 18 | 360 | 0.0 | 3.2 | 0.00 | 0.10 | 0.00 | 95 | 1014.8 |
| 20260906080003 | 18 | 360 | 0.0 | 3.2 | 0.00 | 0.10 | 0.00 | 95 | 1014.9 |
| 20260906075503 | 18 | 360 | 0.0 | 3.2 | 0.00 | 0.10 | 0.00 | 95 | 1014.8 |
| 20260906075217 | 18 | 360 | 0.0 | 3.2 | 0.00 | 0.10 | 0.00 | 95 | 1014.9 |
| 20260906074503 | 18 | 0 | 0.0 | 0.0 | 0.00 | 0.10 | 0.00 | 95 | 1015.1 |
| 20260906074003 | 18 | 360 | 0.0 | 1.6 | 0.00 | 0.10 | 0.00 | 95 | 1015.2 |
| 20260906073503 | 18 | 360 | 0.0 | 1.6 | 0.00 | 0.10 | 0.00 | 95 | 1015.3 |
| 20260906073003 | 18 | 0 | 0.0 | 0.0 | 0.00 | 0.10 | 0.00 | 95 | 1015.3 |
| 20260906072503 | 18 | 360 | 0.0 | 1.6 | 0.00 | 0.10 | 0.00 | 95 | 1015.3 |
| 20260906072003 | 18 | 360 | 0.0 | 3.2 | 0.00 | 0.10 | 0.00 | 95 | 1015.3 |
| 20260906071503 | 18 | 360 | 0.0 | 3.2 | 0.00 | 0.10 | 0.00 | 94 | 1015.3 |
| 20260906071003 | 18 | 360 | 0.0 | 3.2 | 0.00 | 0.10 | 0.00 | 94 | 1015.3 |
| 20260906070503 | 18 | 360 | 0.0 | 1.6 | 0.00 | 0.10 | 0.00 | 94 | 1015.3 |
| 20260906070003 | 18 | 360 | 0.0 | 1.6 | 0.00 | 0.10 | 0.00 | 94 | 1015.4 |
| 20260906065715 | 18 | 360 | 0.0 | 1.6 | 0.00 | 0.10 | 0.00 | 94 | 1015.4 |
| 20260906065003 | 18 | 360 | 0.0 | 4.8 | 0.00 | 0.10 | 0.00 | 95 | 1015.4 |
| 20260906064503 | 18 | 360 | 0.0 | 4.8 | 0.00 | 0.10 | 0.00 | 95 | 1015.6 |
| 20260906064003 | 18 | 360 | 0.0 | 4.8 | 0.00 | 0.10 | 0.00 | 94 | 1015.5 |
| 20260906063503 | 18 | 360 | 0.0 | 1.6 | 0.00 | 0.10 | 0.00 | 94 | 1015.5 |
| 20260906063216 | 18 | 360 | 0.0 | 1.6 | 0.00 | 0.10 | 0.00 | 95 | 1015.5 |
| 20260906062717 | 18 | 360 | 0.0 | 1.6 | 0.00 | 0.10 | 0.00 | 94 | 1015.6 |
| 20260906062003 | 18 | 0 | 0.0 | 0.0 | 0.00 | 0.10 | 0.00 | 94 | 1015.6 |
| 20260906061503 | 18 | 0 | 0.0 | 0.0 | 0.00 | 0.10 | 0.00 | 94 | 1015.6 |
| 20260906061003 | 18 | 0 | 0.0 | 0.0 | 0.00 | 0.10 | 0.00 | 94 | 1015.7 |
| 20260906060503 | 18 | 360 | 0.0 | 1.6 | 0.00 | 0.10 | 0.00 | 94 | 1015.8 |
| 20260906060003 | 18 | 360 | 0.0 | 1.6 | 0.00 | 0.10 | 0.00 | 94 | 1015.8 |
| 20260906055503 | 18 | 360 | 0.0 | 1.6 | 0.00 | 0.10 | 0.00 | 94 | 1015.8 |
| 20260906055003 | 18 | 360 | 0.0 | 1.6 | 0.00 | 0.10 | 0.00 | 94 | 1015.7 |
| 20260906054503 | 18 | 0 | 0.0 | 0.0 | 0.00 | 0.10 | 0.00 | 94 | 1015.6 |
| 20260906054003 | 18 | 0 | 0.0 | 0.0 | 0.00 | 0.10 | 0.00 | 94 | 1015.6 |
| 20260906053503 | 18 | 0 | 0.0 | 0.0 | 0.00 | 0.10 | 0.00 | 94 | 1015.6 |
| 20260906053003 | 18 | 0 | 0.0 | 0.0 | 0.00 | 0.10 | 0.00 | 94 | 1015.6 |
| 20260906052503 | 18 | 0 | 0.0 | 0.0 | 0.00 | 0.10 | 0.00 | 94 | 1015.6 |
| 20260906052003 | 18 | 360 | 0.0 | 1.6 | 0.00 | 0.10 | 0.00 | 94 | 1015.7 |
| 20260906051503 | 18 | 360 | 0.0 | 1.6 | 0.00 | 0.10 | 0.00 | 94 | 1015.7 |
| 20260906051003 | 18 | 360 | 0.0 | 1.6 | 0.00 | 0.10 | 0.00 | 94 | 1015.7 |
| 20260906050503 | 18 | 360 | 0.0 | 1.6 | 0.00 | 0.10 | 0.00 | 94 | 1015.7 |
| 20260906050003 | 18 | 360 | 0.0 | 1.6 | 0.00 | 0.10 | 0.00 | 94 | 1015.7 |
| 20260906045719 | 18 | 360 | 0.0 | 1.6 | 0.00 | 0.10 | 0.10 | 94 | 1015.8 |
| 20260906045003 | 18 | 360 | 0.0 | 1.6 | 0.00 | 0.10 | 0.10 | 94 | 1015.7 |
| 20260906044503 | 18 | 360 | 0.0 | 1.6 | 0.00 | 0.10 | 0.10 | 94 | 1015.7 |
| 20260906044003 | 18 | 360 | 0.0 | 1.6 | 0.00 | 0.10 | 0.10 | 94 | 1015.7 |
| 20260906043503 | 18 | 0 | 0.0 | 0.0 | 0.00 | 0.10 | 0.10 | 94 | 1015.9 |
| 20260906043003 | 18 | 360 | 0.0 | 1.6 | 0.00 | 0.10 | 0.10 | 94 | 1015.8 |
| 20260906042503 | 18 | 360 | 0.0 | 1.6 | 0.00 | 0.10 | 0.10 | 94 | 1015.8 |
| 20260906042003 | 18 | 360 | 0.0 | 1.6 | 0.00 | 0.10 | 0.10 | 94 | 1015.9 |
| 20260906041503 | 18 | 0 | 0.0 | 0.0 | 0.00 | 0.10 | 0.10 | 94 | 1015.9 |
| 20260906041003 | 18 | 360 | 0.0 | 1.6 | 0.00 | 0.10 | 0.10 | 94 | 1015.9 |
| 20260906040503 | 18 | 360 | 0.0 | 1.6 | 0.00 | 0.10 | 0.10 | 94 | 1015.9 |
| 20260906040003 | 18 | 360 | 0.0 | 1.6 | 0.00 | 0.10 | 0.10 | 93 | 1015.9 |
| 20260906035503 | 18 | 360 | 0.0 | 1.6 | 0.00 | 0.10 | 0.10 | 93 | 1016.0 |
| 20260906035003 | 18 | 360 | 0.0 | 1.6 | 0.00 | 0.10 | 0.10 | 93 | 1016.0 |
| 20260906034503 | 18 | 0 | 0.0 | 0.0 | 0.00 | 0.10 | 0.10 | 93 | 1015.9 |
| 20260906034003 | 18 | 0 | 0.0 | 0.0 | 0.00 | 0.10 | 0.10 | 93 | 1015.9 |
| 20260906033503 | 18 | 360 | 0.0 | 1.6 | 0.00 | 0.10 | 0.10 | 93 | 1015.8 |
| 20260906033003 | 18 | 360 | 0.0 | 1.6 | 0.00 | 0.10 | 0.10 | 93 | 1015.7 |
| 20260906032716 | 18 | 0 | 0.0 | 0.0 | 0.00 | 0.10 | 0.10 | 93 | 1015.7 |
| 20260906032003 | 18 | 360 | 0.0 | 1.6 | 0.00 | 0.10 | 0.10 | 93 | 1015.6 |
| 20260906031503 | 18 | 360 | 0.0 | 1.6 | 0.00 | 0.10 | 0.10 | 92 | 1015.5 |
| 20260906031003 | 18 | 360 | 0.0 | 3.2 | 0.00 | 0.10 | 0.10 | 92 | 1015.4 |
| 20260906030503 | 18 | 360 | 0.0 | 3.2 | 0.00 | 0.10 | 0.10 | 92 | 1015.5 |
| 20260906030217 | 18 | 0 | 0.0 | 0.0 | 0.00 | 0.10 | 0.10 | 92 | 1015.6 |
| 20260906025718 | 18 | 0 | 0.0 | 0.0 | 0.00 | 0.10 | 0.10 | 92 | 1015.7 |
| 20260906025003 | 18 | 0 | 0.0 | 0.0 | 0.00 | 0.10 | 0.10 | 92 | 1015.5 |
| 20260906024503 | 18 | 0 | 0.0 | 0.0 | 0.00 | 0.10 | 0.10 | 92 | 1015.5 |
| 20260906024003 | 18 | 360 | 0.0 | 1.6 | 0.00 | 0.10 | 0.10 | 92 | 1015.4 |
| 20260906023503 | 18 | 360 | 0.0 | 1.6 | 0.00 | 0.10 | 0.10 | 92 | 1015.4 |
| 20260906023003 | 18 | 360 | 0.0 | 1.6 | 0.00 | 0.10 | 0.10 | 92 | 1015.3 |
| 20260906022716 | 18 | 360 | 0.0 | 1.6 | 0.00 | 0.10 | 0.10 | 92 | 1015.3 |
| 20260906022003 | 19 | 360 | 0.0 | 1.6 | 0.00 | 0.10 | 0.10 | 91 | 1015.5 |
| 20260906021718 | 19 | 360 | 0.0 | 1.6 | 0.00 | 0.10 | 0.10 | 91 | 1015.4 |
| 20260906021003 | 19 | 360 | 0.0 | 1.6 | 0.00 | 0.10 | 0.10 | 91 | 1015.4 |
| 20260906020503 | 19 | 360 | 0.0 | 6.4 | 0.00 | 0.10 | 0.10 | 91 | 1015.4 |
| 20260906020216 | 19 | 360 | 0.0 | 6.4 | 0.00 | 0.10 | 0.10 | 91 | 1015.3 |
| 20260906015503 | 19 | 360 | 0.0 | 3.2 | 0.00 | 0.10 | 0.10 | 91 | 1015.1 |
| 20260906015003 | 19 | 360 | 0.0 | 3.2 | 0.00 | 0.10 | 0.10 | 91 | 1015.0 |
| 20260906014503 | 19 | 360 | 1.6 | 3.2 | 0.00 | 0.10 | 0.10 | 91 | 1015.1 |
| 20260906014003 | 19 | 360 | 0.0 | 3.2 | 0.00 | 0.10 | 0.10 | 90 | 1015.0 |
| 20260906013503 | 19 | 360 | 0.0 | 3.2 | 0.00 | 0.10 | 0.10 | 90 | 1014.8 |
| 20260906013003 | 19 | 360 | 0.0 | 3.2 | 0.00 | 0.10 | 0.10 | 90 | 1014.8 |
| 20260906012503 | 19 | 360 | 0.0 | 3.2 | 0.00 | 0.10 | 0.10 | 89 | 1014.8 |
| 20260906012003 | 20 | 360 | 0.0 | 3.2 | 0.00 | 0.10 | 0.10 | 89 | 1014.8 |
| 20260906011503 | 20 | 360 | 0.0 | 3.2 | 0.00 | 0.10 | 0.10 | 89 | 1014.6 |
| 20260906011003 | 20 | 360 | 0.0 | 3.2 | 0.00 | 0.10 | 0.10 | 88 | 1014.4 |
| 20260906010503 | 20 | 360 | 0.0 | 3.2 | 0.00 | 0.10 | 0.10 | 88 | 1014.2 |
| 20260906010216 | 20 | 360 | 0.0 | 1.6 | 0.00 | 0.10 | 0.10 | 88 | 1014.2 |
| 20260906005717 | 20 | 360 | 0.0 | 3.2 | 0.00 | 0.10 | 0.10 | 87 | 1014.2 |
| 20260906005218 | 20 | 360 | 0.0 | 3.2 | 0.00 | 0.10 | 0.10 | 87 | 1014.1 |
| 20260906004503 | 20 | 157 | 0.0 | 3.2 | 0.00 | 0.10 | 0.10 | 85 | 1014.1 |
| 20260906004003 | 21 | 155 | 0.0 | 4.8 | 0.00 | 0.10 | 0.10 | 85 | 1014.1 |
| 20260906003503 | 21 | 153 | 0.0 | 4.8 | 0.00 | 0.10 | 0.10 | 85 | 1013.9 |
| 20260906003003 | 21 | 150 | 0.0 | 3.2 | 0.00 | 0.10 | 0.10 | 84 | 1013.6 |
| 20260906002503 | 21 | 150 | 0.0 | 3.2 | 0.00 | 0.10 | 0.10 | 83 | 1013.5 |
| 20260906002003 | 21 | 152 | 0.0 | 3.2 | 0.00 | 0.10 | 0.10 | 83 | 1013.5 |
| 20260906001503 | 21 | 138 | 1.6 | 9.7 | 0.00 | 0.10 | 0.10 | 82 | 1013.5 |
| 20260906001003 | 22 | 132 | 1.6 | 9.7 | 0.00 | 0.10 | 0.10 | 81 | 1013.5 |
| 20260906000503 | 22 | 122 | 0.0 | 1.6 | 0.00 | 0.10 | 0.10 | 82 | 1013.4 |
| 20260906000003 | 22 | 122 | 0.0 | 3.2 | 0.00 | 0.10 | 0.10 | 81 | 1013.5 |
| 20260905235503 | 22 | 131 | 1.6 | 11.3 | 0.00 | 0.10 | 0.10 | 81 | 1013.6 |
| 20260905235003 | 22 | 133 | 1.6 | 11.3 | 0.00 | 0.10 | 0.10 | 80 | 1013.4 |
| 20260905234503 | 22 | 131 | 1.6 | 11.3 | 0.00 | 0.10 | 0.10 | 80 | 1013.5 |
| 20260905234003 | 23 | 128 | 1.6 | 9.7 | 0.00 | 0.10 | 0.10 | 79 | 1013.4 |
| 20260905233503 | 23 | 185 | 0.0 | 9.7 | 0.00 | 0.10 | 0.10 | 79 | 1013.4 |
| 20260905233218 | 23 | 186 | 0.0 | 9.7 | 0.00 | 0.10 | 0.10 | 79 | 1013.5 |
| 20260905232719 | 23 | 100 | 0.0 | 4.8 | 0.00 | 0.10 | 0.10 | 78 | 1013.4 |
| 20260905232003 | 23 | 92 | 0.0 | 4.8 | 0.00 | 0.10 | 0.10 | 79 | 1013.4 |
| 20260905231503 | 23 | 117 | 1.6 | 4.8 | 0.00 | 0.10 | 0.10 | 79 | 1013.3 |
| 20260905231003 | 23 | 136 | 1.6 | 4.8 | 0.00 | 0.10 | 0.10 | 81 | 1013.2 |
| 20260905230503 | 23 | 149 | 1.6 | 8.0 | 0.00 | 0.10 | 0.10 | 82 | 1013.4 |
| 20260905230003 | 23 | 150 | 1.6 | 11.3 | 0.00 | 0.10 | 0.10 | 81 | 1013.4 |
| 20260905225503 | 23 | 151 | 1.6 | 11.3 | 0.00 | 0.10 | 0.10 | 79 | 1013.5 |
| 20260905225003 | 24 | 147 | 1.6 | 8.0 | 0.00 | 0.10 | 0.10 | 77 | 1013.5 |
| 20260905224718 | 24 | 139 | 1.6 | 8.0 | 0.00 | 0.10 | 0.10 | 76 | 1013.4 |
| 20260905224003 | 24 | 127 | 1.6 | 4.8 | 0.00 | 0.10 | 0.10 | 78 | 1013.5 |
| 20260905223716 | 24 | 154 | 0.0 | 4.8 | 0.00 | 0.10 | 0.10 | 78 | 1013.4 |
| 20260905223003 | 24 | 179 | 1.6 | 9.7 | 0.00 | 0.10 | 0.10 | 79 | 1013.3 |
| 20260905222503 | 24 | 180 | 1.6 | 9.7 | 0.00 | 0.10 | 0.10 | 80 | 1013.3 |
| 20260905222219 | 24 | 181 | 1.6 | 9.7 | 0.00 | 0.10 | 0.10 | 80 | 1013.3 |
| 20260905221503 | 23 | 155 | 1.6 | 8.0 | 0.00 | 0.10 | 0.10 | 81 | 1013.3 |
| 20260905221003 | 23 | 104 | 0.0 | 3.2 | 0.00 | 0.10 | 0.10 | 82 | 1013.4 |
| 20260905220503 | 23 | 102 | 1.6 | 4.8 | 0.00 | 0.10 | 0.10 | 83 | 1013.1 |
| 20260905220003 | 23 | 113 | 0.0 | 4.8 | 0.00 | 0.10 | 0.10 | 83 | 1013.3 |
| 20260905215503 | 22 | 130 | 0.0 | 4.8 | 0.00 | 0.10 | 0.10 | 83 | 1013.3 |
| 20260905215003 | 22 | 126 | 0.0 | 4.8 | 0.00 | 0.10 | 0.10 | 85 | 1013.1 |
| 20260905214503 | 22 | 124 | 0.0 | 3.2 | 0.00 | 0.10 | 0.10 | 85 | 1013.3 |
| 20260905214003 | 22 | 124 | 1.6 | 4.8 | 0.00 | 0.10 | 0.10 | 85 | 1013.3 |
| 20260905213503 | 22 | 121 | 3.2 | 6.4 | 0.00 | 0.10 | 0.10 | 85 | 1012.8 |
| 20260905213003 | 22 | 124 | 3.2 | 6.4 | 0.00 | 0.10 | 0.10 | 83 | 1012.8 |
| 20260905212503 | 23 | 116 | 3.2 | 6.4 | 0.00 | 0.10 | 0.10 | 83 | 1012.7 |
| 20260905212219 | 23 | 102 | 3.2 | 9.7 | 0.00 | 0.10 | 0.10 | 85 | 1012.7 |
| 20260905211503 | 22 | 100 | 3.2 | 9.7 | 0.00 | 0.10 | 0.10 | 88 | 1012.8 |
| 20260905211003 | 22 | 101 | 3.2 | 6.4 | 0.00 | 0.10 | 0.10 | 87 | 1012.8 |
| 20260905210503 | 22 | 100 | 3.2 | 9.7 | 0.00 | 0.10 | 0.10 | 85 | 1012.8 |
| 20260905210003 | 22 | 110 | 3.2 | 9.7 | 0.00 | 0.10 | 0.10 | 86 | 1012.9 |
| 20260905205503 | 22 | 116 | 3.2 | 6.4 | 0.00 | 0.10 | 0.10 | 88 | 1012.9 |
| 20260905205003 | 21 | 118 | 3.2 | 6.4 | 0.00 | 0.10 | 0.10 | 87 | 1013.1 |
| 20260905204503 | 22 | 108 | 3.2 | 6.4 | 0.00 | 0.10 | 0.10 | 87 | 1013.3 |
| 20260905204003 | 22 | 111 | 3.2 | 6.4 | 0.05 | 0.10 | 0.10 | 86 | 1013.3 |
| 20260905203503 | 22 | 130 | 1.6 | 6.4 | 0.05 | 0.10 | 0.10 | 87 | 1013.4 |
| 20260905203003 | 22 | 130 | 1.6 | 4.8 | 0.08 | 0.10 | 0.10 | 86 | 1013.8 |
| 20260905202717 | 22 | 126 | 1.6 | 4.8 | 0.10 | 0.10 | 0.10 | 87 | 1013.6 |
| 20260905202003 | 22 | 128 | 3.2 | 6.4 | 0.10 | 0.10 | 0.10 | 91 | 1013.4 |